[[{"header":{"parameterUnit":"m.s-1","parameterCategory":1,"la1":30.2991,"la2":30.254,"lo1":-89.0895,"lo2":-89.0444,"dy":0.0017,"dx":0.0017,"nx":28,"ny":28,"refTime":"2026-01-04T03:00:00:Z","depth":0,"parameterNumber":2,"parameterNumberName":"U-component_of_WINDS"},"data":[0,0,0,0,0,0,0,0,0,0,0,0,0,0,0,0,0,0,0,0,0,0,0,0,0,0,0,0,0,0,0,0,0,0,0,0,0,0,0,0,0,0,0,0,0,0,0,0,0,0,0,0,0,0,0,0,0,0,2.3807,2.3804,0,2.3585,2.3583,2.358,2.3442,2.3441,2.344,2.3439,2.3215,2.321,2.3205,0,0,0,0,0,0,0,0,0,0,0,0,0,2.4116,2.4111,2.3807,2.3804,2.3801,2.3586,2.3583,2.358,2.3442,2.3441,2.344,2.3439,2.3217,2.3211,2.3204,0,0,0,0,0,0,0,0,0,0,0,0,0,2.3947,2.4109,2.3807,2.3707,2.3695,2.3586,2.3583,2.3579,2.3442,2.3441,2.344,2.3439,2.3219,2.3211,2.3203,2.3178,0,0,2.3179,2.3176,0,0,0,0,0,0,0,0,2.3957,2.3936,2.3724,2.3713,2.3701,2.354,2.3609,2.3445,2.3442,2.3538,2.3439,2.3438,2.3324,2.3308,2.3269,2.3168,2.3158,2.3179,2.3174,2.3171,2.3168,0,0,0,0,0,0,0,2.3968,2.3944,2.3719,2.3721,2.3707,2.3674,2.3649,2.3577,2.3441,2.353,2.3519,2.3495,2.3318,2.3277,2.3262,2.3155,2.3179,2.3172,2.3167,2.3164,2.3025,2.3026,0,0,0,0,0,0,2.3996,2.3955,2.3726,2.3713,2.3828,2.367,2.3641,2.3593,2.3441,2.3417,2.3496,2.3489,2.3291,2.3272,2.3254,2.3216,2.3171,2.3163,2.3159,2.3024,2.3026,2.3027,0,0,0,0,0,0,2.4003,2.3976,2.3735,2.3831,2.3798,2.3665,2.3612,2.3589,2.3548,2.3415,2.3391,2.3479,2.3289,2.3265,2.3199,2.3206,2.316,2.3152,2.3023,2.3025,2.3026,2.3139,0,0,0,0,0,0,2.4012,2.398,2.3967,2.3832,2.3793,2.3682,2.3612,2.3585,2.3534,2.3523,2.3393,2.337,2.3286,2.3211,2.3191,2.3194,2.3146,2.3022,2.3024,2.3026,2.3134,2.3144,2.3152,0,0,0,0,0,2.4024,2.4007,2.3967,2.394,2.3774,2.3683,2.3661,2.3564,2.3535,2.3523,2.3438,2.3374,2.3209,2.3205,2.3181,2.3183,2.3021,2.3023,2.3026,2.3129,2.3142,2.3152,0,0,0,0,0,0,2.4147,2.3988,2.3941,2.388,2.3796,2.366,2.364,2.358,2.3502,2.3495,2.3379,2.3351,2.3297,2.3233,2.3232,2.3152,2.3108,2.3106,2.3195,2.3206,2.3215,2.3231,2.314,0,0,0,0,0,2.4167,2.4105,2.397,2.3929,2.3889,2.3773,2.3729,2.3662,2.3571,2.3534,2.3445,2.3359,2.3288,2.3244,2.3171,2.3125,2.3095,2.3114,2.3124,2.3132,2.3131,2.3105,2.3112,2.3034,2.3034,2.3034,0,0,2.4208,2.4113,2.4081,2.3952,2.3878,2.3818,2.3743,2.3682,2.3637,2.3525,2.3456,2.3389,2.3286,2.3231,2.3202,2.3176,2.3147,2.3135,2.3143,2.3137,2.3108,2.3115,2.3122,2.3036,2.3036,2.3035,0,0,2.4251,2.4173,2.4131,2.4061,2.3951,2.3874,2.3865,2.3738,2.3689,2.3619,2.3535,2.3481,2.336,2.3291,2.324,2.3264,2.3202,2.3243,2.3292,2.3268,2.3274,2.3279,2.3288,2.3292,2.3243,2.3243,2.3244,0,2.4315,2.4219,2.4118,2.4062,2.4009,2.3907,2.3865,2.3802,2.3675,2.3641,2.3615,2.3464,2.3387,2.3315,2.3321,2.3283,2.3271,2.3256,2.3281,2.3285,2.3288,2.3295,2.3299,2.3249,2.3248,2.3248,2.3247,0,2.4305,2.4241,2.4221,2.4101,2.4046,2.3998,2.3891,2.3848,2.3788,2.3715,2.3647,2.3553,2.346,2.3439,2.3379,2.3359,2.3347,2.3303,2.3255,2.3303,2.3308,2.331,2.3257,2.3255,2.3253,2.3252,0,0,2.4414,2.4243,2.4237,2.4183,2.4058,2.4006,2.3956,2.3866,2.3832,2.375,2.3705,2.3608,2.3567,2.351,2.3442,2.3421,2.3448,2.3379,2.3375,2.3395,2.3422,2.3456,2.3461,2.3408,2.3408,2.3408,2.3431,0,2.4438,2.434,2.425,2.4185,2.4126,2.4031,2.3987,2.3907,2.3839,2.378,2.3706,2.3639,2.359,2.3555,2.353,2.345,2.3451,2.3447,2.3366,2.3364,2.3393,2.3463,2.3497,2.3524,2.3433,2.3433,2.3433,0,2.4451,2.4374,2.4304,2.4188,2.416,2.4122,2.4033,2.3978,2.3887,2.3839,2.3779,2.3708,2.3653,2.3614,2.3537,2.3537,2.3499,2.3456,2.3454,2.3442,2.34,2.3452,2.353,2.3534,2.3435,2.3435,2.3435,0,2.4539,2.4418,2.4361,2.4317,2.418,2.4156,2.4098,2.4006,2.3959,2.3883,2.3852,2.3771,2.3726,2.3667,2.3578,2.3557,2.3511,2.3465,2.3471,2.3474,2.3463,2.3465,2.3535,2.3442,2.3442,2.3442,2.3441,0,2.4574,2.4535,2.4398,2.4363,2.4318,2.4217,2.4175,2.4109,2.4029,2.3981,2.3895,2.3852,2.3737,2.3681,2.3612,2.356,2.3541,2.3502,2.3483,2.3508,2.3514,2.3481,2.3476,2.3442,2.3442,2.3442,2.3442,0,2.4663,2.4569,2.4501,2.4378,2.4347,2.4319,2.4215,2.4178,2.4108,2.4048,2.4029,2.3918,2.3848,2.3754,2.3655,2.3609,2.3566,2.3538,2.3597,2.3586,2.3598,2.3598,2.3648,2.365,2.3558,2.3559,2.356,0,2.469,2.4658,2.4533,2.4495,2.444,2.4379,2.4331,2.4232,2.4186,2.4083,2.406,2.3984,2.3917,2.3812,2.3723,2.3648,2.3617,2.364,2.3605,2.3632,2.3617,2.362,2.3617,2.3648,2.365,2.3651,2.3652,0,2.4749,2.4706,2.4639,2.4559,2.4505,2.4436,2.4364,2.4338,2.4225,2.4178,2.4106,2.4055,2.3956,2.3882,2.3796,2.3738,2.3677,2.3665,2.3662,2.3686,2.3722,2.3703,2.362,2.3663,2.3662,2.3661,2.366,2.366,2.4807,2.4775,2.4683,2.4613,2.455,2.4485,2.4446,2.4372,2.431,2.4221,2.4168,2.4099,2.4013,2.3891,2.3837,2.3783,2.3758,2.3754,2.3753,2.3754,2.3762,2.3733,2.3767,2.3767,2.3766,2.3766,2.3766,0,2.4861,2.4799,2.4736,2.4638,2.4585,2.4534,2.4452,2.4411,2.4351,2.4276,2.4214,2.4134,2.4063,2.3972,2.3895,2.387,2.384,2.3853,2.3853,2.3841,2.3788,2.3798,2.3879,2.3879,2.3879,2.3879,2.3879,2.3879,2.4883,2.4827,2.4774,2.4687,2.4625,2.4556,2.4515,2.4456,2.4396,2.431,2.4251,2.4192,2.4111,2.403,2.3964,2.3939,2.3915,2.3937,2.3903,2.3855,2.3845,2.3835,2.3843,2.3932,2.3932,2.396,2.3961,2.3961]},{"header":{"parameterUnit":"m.s-1","parameterCategory":1,"la1":30.2991,"la2":30.254,"lo1":-89.0895,"lo2":-89.0444,"dy":0.0017,"dx":0.0017,"nx":28,"ny":28,"refTime":"2026-01-04T03:00:00:Z","depth":0,"parameterNumber":3,"parameterNumberName":"V-component_of_WINDS"},"data":[0,0,0,0,0,0,0,0,0,0,0,0,0,0,0,0,0,0,0,0,0,0,0,0,0,0,0,0,0,0,0,0,0,0,0,0,0,0,0,0,0,0,0,0,0,0,0,0,0,0,0,0,0,0,0,0,0,0,1.9005,1.9009,0,1.934,1.9344,1.9348,1.9507,1.9507,1.9506,1.9506,1.9848,1.9857,1.9866,0,0,0,0,0,0,0,0,0,0,0,0,0,1.8499,1.8508,1.9005,1.9009,1.9013,1.934,1.9344,1.9349,1.9507,1.9507,1.9506,1.9506,1.9845,1.9856,1.9867,0,0,0,0,0,0,0,0,0,0,0,0,0,1.8765,1.851,1.9004,1.9131,1.9146,1.9339,1.9344,1.935,1.9507,1.9507,1.9506,1.9506,1.9841,1.9855,1.9869,1.9959,0,0,1.9911,1.9917,0,0,0,0,0,0,0,0,1.875,1.8783,1.9108,1.9123,1.914,1.9382,1.9292,1.9554,1.9507,1.937,1.9506,1.9506,1.9693,1.9719,1.9782,1.9975,1.999,1.9912,1.9921,1.9927,1.9931,0,0,0,0,0,0,0,1.8731,1.877,1.9138,1.9113,1.9132,1.9171,1.9209,1.9342,1.9529,1.9382,1.9394,1.9432,1.9701,1.9769,1.9792,1.9995,1.9912,1.9924,1.9933,1.9938,2.028,2.0281,0,0,0,0,0,0,1.8692,1.8753,1.9127,1.9148,1.894,1.918,1.9222,1.9304,1.9528,1.9562,1.9432,1.9438,1.9745,1.9775,1.9804,1.9926,1.9926,1.994,1.9947,2.0279,2.028,2.0281,0,0,0,0,0,0,1.8681,1.8724,1.9113,1.8954,1.9007,1.9189,1.928,1.9311,1.9378,1.9565,1.9599,1.9466,1.9746,1.9785,1.992,1.994,1.9946,1.9958,2.0278,2.0279,2.028,2.017,0,0,0,0,0,0,1.8665,1.8719,1.8756,1.8954,1.9014,1.9224,1.9281,1.9318,1.9402,1.9414,1.9607,1.9639,1.9749,1.9898,1.9934,1.996,1.9969,2.0277,2.0279,2.028,2.0173,2.0167,2.0162,0,0,0,0,0,1.8647,1.8711,1.8757,1.8801,1.9065,1.9225,1.9259,1.9385,1.9403,1.9442,1.9562,1.9632,1.9932,1.9911,1.9952,1.9982,2.0277,2.0278,2.028,2.0175,2.0168,2.0163,0,0,0,0,0,0,1.851,1.8739,1.8793,1.8923,1.9053,1.9251,1.9304,1.9374,1.9502,1.9507,1.9657,1.97,1.9822,1.9916,1.9888,2.0082,2.0111,2.0121,2.0017,2.0012,2.0007,1.9982,1.9981,0,0,0,0,0,1.8495,1.8607,1.88,1.8896,1.8959,1.9119,1.9194,1.928,1.942,1.9476,1.9606,1.974,1.9864,1.9943,2.0068,2.0186,2.0231,2.0227,2.0222,2.0217,2.0224,2.0294,2.0295,2.0286,2.0286,2.0286,0,0,1.8466,1.8604,1.8665,1.8872,1.8984,1.9095,1.9165,1.928,1.9364,1.9494,1.963,1.9729,1.9888,2.0015,2.0078,2.0097,2.0236,2.0219,2.0214,2.0224,2.0296,2.0297,2.0297,2.0288,2.0287,2.0287,0,0,1.8469,1.8584,1.8678,1.8787,1.8955,1.9061,1.9083,1.9271,1.9342,1.9481,1.958,1.9682,1.9893,2.0003,2.0085,2.0128,2.0199,2.0165,2.0139,2.0205,2.0206,2.0207,2.0224,2.0228,2.0171,2.0171,2.017,0,1.8411,1.8584,1.8716,1.8827,1.8915,1.9037,1.9132,1.9232,1.943,1.9488,1.9507,1.9775,1.989,2.0045,2.0055,2.0118,2.0148,2.0144,2.0195,2.0198,2.0201,2.0218,2.0224,2.0166,2.0166,2.0167,2.0167,0,1.8504,1.8622,1.8677,1.8867,1.8961,1.9062,1.921,1.9289,1.9366,1.947,1.9609,1.9752,1.9908,1.9951,2.0027,2.0116,2.0123,2.0166,2.0199,2.0195,2.0213,2.0221,2.0158,2.016,2.0162,2.0163,0,0,1.8433,1.8694,1.8712,1.88,1.8993,1.9086,1.9193,1.9346,1.9411,1.9543,1.9637,1.9812,1.9853,1.9947,2.0036,2.0094,2.012,2.0131,2.0137,2.0125,2.0229,2.0196,2.0202,2.0167,2.0169,2.017,2.0216,0,1.8464,1.8662,1.8784,1.8933,1.9043,1.916,1.9253,1.9381,1.948,1.9589,1.9698,1.9821,1.9865,1.9923,1.9985,2.0104,2.0143,2.0102,2.0256,2.026,2.0214,2.0212,2.0178,2.0214,2.0224,2.0225,2.0226,0,1.8527,1.8657,1.8817,1.8997,1.9049,1.913,1.928,1.9382,1.9529,1.9597,1.9701,1.9791,1.9908,1.9929,2.0092,2.0061,2.0131,2.0199,2.0203,2.0224,2.0244,2.0233,2.0228,2.0234,2.0239,2.0238,2.0237,0,1.846,1.8675,1.8799,1.887,1.9083,1.9138,1.9229,1.9376,1.946,1.9591,1.9647,1.9788,1.9866,1.9974,2.0099,2.0103,2.025,2.0281,2.031,2.0307,2.0338,2.0334,2.0345,2.0379,2.0379,2.0379,2.0379,0,1.8483,1.8576,1.8771,1.8847,1.8955,1.9094,1.9196,1.9297,1.9427,1.9524,1.9633,1.9722,1.9882,1.999,2.0089,2.0209,2.0243,2.0302,2.0327,2.0293,2.0286,2.0342,2.0344,2.0381,2.038,2.038,2.038,0,1.8427,1.8561,1.8704,1.8894,1.8944,1.9015,1.9178,1.9256,1.936,1.9482,1.9519,1.9683,1.9816,1.9951,2.0131,2.0197,2.0316,2.035,2.0266,2.0281,2.0303,2.0299,2.0352,2.0366,2.0387,2.0387,2.0387,0,1.8433,1.8508,1.8706,1.8779,1.8868,1.8985,1.9071,1.921,1.9295,1.9468,1.9525,1.9666,1.9787,1.9994,2.0129,2.0267,2.0306,2.0315,2.0328,2.0291,2.0308,2.0303,2.0311,2.031,2.0309,2.0309,2.0308,0,1.8431,1.8493,1.8614,1.8758,1.8858,1.8978,1.9101,1.9155,1.9318,1.9408,1.9546,1.9639,1.9823,1.9962,2.0116,2.021,2.0286,2.0303,2.0317,2.0284,2.0233,2.0262,2.0254,2.0301,2.0302,2.0302,2.0303,2.0303,1.8408,1.848,1.863,1.8761,1.8869,1.8981,1.9064,1.9179,1.9297,1.9457,1.9532,1.967,1.9815,2.003,2.0122,2.0232,2.0253,2.0273,2.0279,2.0282,2.0274,2.0213,2.026,2.026,2.0261,2.0261,2.0261,0,1.8412,1.8514,1.8633,1.8803,1.8905,1.8968,1.9108,1.919,1.931,1.9439,1.9556,1.9714,1.9849,1.9994,2.0138,2.0198,2.0237,2.0231,2.0229,2.0249,2.0247,2.0221,2.0197,2.0197,2.0197,2.0197,2.0197,2.0197,1.8426,1.8552,1.8632,1.8811,1.8913,1.905,1.9125,1.9229,1.9333,1.9505,1.9618,1.9712,1.9848,2.0002,2.0129,2.0168,2.0216,2.0201,2.025,2.0245,2.0249,2.0254,2.023,2.021,2.021,2.0244,2.0244,2.0244]}]]